Vertical_Velocity
-2 -1 0 1 0 -0 -1 0 1 -4 -4 7 -2 -1 -6 -7 3 -1 -3 1 -2 -0 -4 -2 -1 -2 -2 -2 -3 -1 1 -4 -1 -3 -2 0 -2 -0 2 -2 -1 6 3 0
1 0 0 -0 -0 -0 1 1 -3 -4 -0 8 -2 -10 -5 -1 -2 -0 -1 -1 -1 -5 -6 -2 -0 1 -1 0 -2 -3 -2 -3 2 1 1 -1 0 -2 0 -0 -1 1 -3 -1
-1 4 -1 -1 1 2 -1 1 -1 3 -2 -2 6 -4 1 0 0 -1 -2 -2 -0 1 -4 -5 -1 1 3 -2 1 -1 1 1 -1 -1 -0 4 4 3 2 -0 -4 -5 -0 -1
1 1 0 1 0 2 1 0 1 1 2 1 3 -5 -2 -1 -1 0 -2 -1 -3 -1 -3 -3 -4 -2 1 1 1 -4 -1 -0 3 5 1 -2 -2 -3 -6 -3 -1 -0 -2 3
3 1 1 2 -2 -1 -1 0 0 1 1 6 2 4 -7 0 -1 -2 -5 -3 -5 -4 1 -3 -3 -1 -1 1 -2 -0 -2 -1 2 1 -1 1 1 0 2 1 0 -2 0 8
-2 -1 2 -2 -0 -1 -1 3 2 1 1 4 -1 5 -5 0 1 -6 -7 -8 -3 -5 -4 -6 -3 1 -1 -1 -1 -1 -1 -2 1 2 3 2 2 -0 2 -0 1 -1 -1 1
-0 -0 -1 1 4 2 3 2 1 3 4 2 0 4 -8 -3 -1 8 3 -5 -6 -4 -3 -4 -2 -1 -0 -1 -3 -3 -3 -5 -4 -2 -4 -2 3 -0 2 2 2 6 3 2
1 3 1 1 -1 -2 -1 0 4 1 1 -0 2 -2 -0 2 1 1 -0 0 -3 -2 1 1 3 1 -2 2 2 9 7 3 1 1 1 1 3 -5 -4 -4 -2 1 3 3
1 -0 1 1 -0 1 6 2 1 2 1 5 -1 -3 3 -2 -8 -7 -4 -2 -4 -3 -3 -2 5 5 1 -1 -2 -2 1 4 3 1 1 -0 3 -0 -5 -3 0 -4 0 2
1 0 0 -0 3 1 1 3 7 3 2 -1 -1 -1 -2 -7 -7 -4 -6 -2 -1 -1 -4 0 2 4 -1 1 -1 -1 3 -2 -4 -6 -2 -2 -3 -1 -2 5 -7 -4 -3 -7
-0 4 6 3 0 -2 4 1 2 5 3 3 1 -0 2 1 1 1 -2 -3 -1 -4 -2 -1 -4 -4 4 8 5 3 5 0 -2 2 1 3 4 -0 4 -3 -0 -6 4 1
-1 1 0 0 0 -1 0 -0 1 4 1 -0 2 -4 1 2 2 3 -0 2 2 5 4 4 2 4 1 -7 -6 0 4 -2 -0 0 9 6 1 -2 -4 -4 2 6 -7 7
-0 0 0 6 7 4 1 -1 0 1 1 -1 4 -6 -1 -3 -3 -2 3 2 3 2 1 5 5 2 0 6 2 6 11 1 4 2 -2 3 7 -0 0 -2 -8 9 3 9
2 0 1 1 2 1 1 -0 -0 1 2 0 -1 -6 -8 -4 0 -5 -4 1 3 6 7 9 -1 2 1 1 -0 0 -1 -10 -4 4 0 -1 3 -0 0 2 -0 0 -5 9
2 1 2 -2 -1 2 0 1 -1 1 -2 4 -2 2 -2 2 3 4 8 1 -3 -3 -5 -3 1 4 6 3 0 -2 2 0 17 4 -4 -3 11 1 1 0 5 6 9 -1
0 -1 0 -2 -1 1 1 -1 0 -0 -1 1 1 -3 1 1 -1 -5 1 -1 -1 -0 1 1 4 3 -2 -1 3 6 1 1 9 10 3 2 -6 0 0 -3 8 5 11 16
1 1 0 -3 0 0 3 -4 -1 0 0 -1 1 -0 0 -2 -1 0 -1 1 0 0 0 0 -2 2 2 -2 0 -1 7 5 -1 -1 -1 4 -1 4 1 0 -1 -7 -2 2
0 0 1 -1 -1 1 5 0 -0 -1 -2 0 1 -2 0 0 1 -2 -0 1 -1 -1 -0 -2 0 2 -0 5 2 1 1 5 11 -16 -10 1 8 -1 -6 -20 3 -8 4 2
1 1 1 3 1 -8 1 1 -1 -1 -5 -2 -2 -1 -0 0 -1 -1 -2 1 -0 -2 -1 0 1 1 4 1 -1 7 3 6 4 1 4 3 8 3 9 15 19 -1 1 3
1 1 5 1 2 0 3 1 -1 -0 -3 -2 -1 -1 -0 1 3 1 -2 -1 1 -0 -1 0 -0 1 1 -3 -1 5 -1 2 -2 2 2 5 3 3 -2 -3 -3 2 7 1
2 1 -1 -0 -0 -8 -1 -0 -1 8 8 -2 -2 -2 -1 -0 3 -1 -2 -3 -1 -1 0 -1 -0 -1 -3 -2 1 -1 -3 -3 1 2 2 2 2 -0 -2 1 -0 1 -1 1
-2 -1 -1 2 3 -4 -2 3 3 1 -1 -1 -1 -1 -2 -2 -3 -3 -5 -3 -4 -2 -2 -1 -2 0 -2 -0 2 1 0 3 2 1 2 -1 -3 -3 1 4 2 1 2 2
2 -3 1 -0 -8 0 -4 0 0 0 -0 -3 -2 -1 1 -0 -2 -1 -2 -2 -2 -1 -1 -0 -0 -4 -4 -3 -3 -0 -3 -1 -3 -0 -1 0 -0 -0 0 0 -1 0 2 2
0 -1 2 3 -2 -5 1 -2 -2 -1 -1 -1 -0 -1 -2 -3 -3 -1 0 -1 -1 -3 -3 -3 -2 -0 -1 -1 -2 -1 -2 -3 -2 -3 -3 -3 -1 -2 -3 -2 -3 -1 -2 -3
0 2 -2 -5 -6 -2 -3 -3 3 1 0 1 1 -2 -4 -2 -1 -0 -1 -2 -2 -2 -1 -1 -0 -0 0 -1 -1 -1 -2 -1 -0 -1 -1 -1 -1 -2 -2 -2 -4 -2 -3 -3
-4 -6 -2 -4 -0 -0 -2 1 1 -0 -3 -0 2 -0 -1 0 -1 -0 -2 -1 -2 -2 -1 -2 -1 -1 -1 0 -1 -2 -2 -2 -2 -1 -2 -2 -1 -1 -1 -1 -0 -2 -1 -1
Height
1527 1526 1527 1529 1533 1534 1537 1534 1532 1524 1526 1527 1511 1497 1494 1492 1490 1489 1489 1489 1488 1486 1484 1481 1478 1475 1472 1471 1471 1472 1474 1476 1480 1482 1484 1487 1489 1493 1496 1499 1503 1506 1509 1512
1527 1528 1533 1534 1534 1536 1536 1533 1525 1520 1523 1523 1506 1492 1486 1485 1484 1483 1485 1485 1483 1480 1476 1473 1471 1469 1466 1463 1463 1463 1464 1467 1470 1473 1476 1479 1482 1484 1488 1492 1495 1499 1502 1505
1525 1531 1533 1532 1535 1537 1531 1530 1526 1522 1518 1512 1512 1482 1481 1483 1484 1483 1485 1483 1478 1473 1468 1465 1463 1461 1459 1456 1454 1454 1455 1457 1460 1464 1467 1470 1473 1476 1479 1481 1485 1489 1494 1498
1529 1532 1533 1534 1533 1533 1532 1525 1527 1525 1528 1515 1512 1487 1477 1476 1480 1481 1480 1475 1470 1465 1462 1458 1454 1450 1449 1448 1446 1445 1445 1447 1450 1454 1457 1460 1463 1465 1469 1474 1477 1482 1486 1490
1528 1530 1531 1531 1527 1530 1527 1529 1527 1527 1526 1523 1505 1510 1475 1479 1473 1474 1472 1469 1464 1459 1454 1447 1445 1441 1439 1438 1436 1435 1436 1438 1442 1445 1448 1451 1454 1458 1464 1467 1471 1474 1478 1483
1531 1532 1531 1527 1526 1529 1529 1527 1525 1525 1521 1510 1499 1501 1473 1473 1473 1472 1468 1466 1460 1453 1446 1440 1435 1432 1429 1428 1426 1426 1427 1429 1432 1435 1438 1442 1447 1453 1457 1461 1464 1467 1471 1474
1530 1528 1529 1528 1529 1530 1529 1526 1505 1503 1503 1489 1517 1509 1477 1477 1476 1473 1468 1461 1456 1449 1439 1432 1426 1421 1420 1418 1418 1420 1421 1423 1425 1428 1431 1436 1441 1447 1451 1455 1458 1462 1465 1467
1526 1520 1523 1524 1523 1524 1526 1527 1512 1501 1490 1483 1511 1490 1473 1477 1476 1473 1469 1461 1451 1443 1434 1427 1420 1413 1412 1411 1412 1414 1415 1416 1418 1422 1425 1429 1433 1438 1443 1449 1453 1457 1460 1462
1525 1518 1520 1521 1522 1526 1522 1521 1517 1515 1507 1504 1481 1481 1475 1474 1473 1471 1465 1458 1450 1440 1433 1425 1417 1411 1408 1408 1408 1409 1411 1412 1413 1417 1421 1424 1428 1431 1435 1440 1446 1448 1453 1457
1526 1523 1519 1521 1522 1522 1521 1522 1513 1511 1496 1483 1472 1482 1475 1481 1476 1468 1460 1453 1445 1438 1431 1423 1416 1411 1408 1405 1405 1407 1407 1408 1410 1413 1415 1418 1421 1425 1429 1433 1436 1441 1445 1449
1527 1527 1514 1518 1517 1515 1518 1514 1513 1511 1500 1493 1481 1472 1489 1487 1480 1473 1464 1455 1447 1438 1429 1422 1415 1410 1406 1404 1402 1403 1402 1403 1404 1407 1409 1410 1414 1418 1422 1424 1428 1432 1437 1441
1522 1523 1513 1507 1510 1511 1511 1507 1511 1505 1498 1502 1501 1483 1488 1485 1478 1472 1463 1453 1446 1439 1432 1424 1418 1411 1406 1403 1400 1399 1398 1398 1399 1401 1404 1407 1410 1413 1415 1417 1421 1425 1430 1435
1520 1515 1507 1503 1509 1511 1508 1505 1506 1505 1508 1498 1495 1486 1487 1483 1477 1469 1461 1453 1446 1439 1432 1425 1418 1412 1406 1401 1396 1397 1398 1396 1396 1397 1400 1401 1403 1405 1408 1412 1417 1421 1424 1429
1520 1514 1516 1504 1507 1508 1508 1501 1503 1508 1501 1495 1495 1491 1485 1481 1475 1467 1459 1453 1446 1438 1430 1424 1418 1414 1409 1403 1399 1396 1391 1387 1388 1392 1395 1397 1399 1402 1406 1410 1414 1417 1421 1425
1518 1516 1511 1506 1506 1507 1505 1499 1498 1504 1497 1498 1486 1489 1486 1480 1477 1472 1465 1455 1449 1443 1436 1430 1424 1419 1413 1408 1403 1397 1389 1378 1380 1388 1392 1396 1399 1400 1403 1408 1411 1414 1417 1419
1518 1510 1511 1505 1498 1501 1502 1493 1492 1493 1494 1491 1486 1480 1482 1478 1477 1473 1469 1463 1457 1451 1445 1438 1431 1426 1421 1415 1409 1402 1394 1387 1387 1391 1394 1395 1395 1397 1401 1404 1408 1408 1411 1413
1517 1513 1510 1499 1500 1498 1491 1478 1480 1484 1486 1484 1481 1476 1479 1477 1476 1475 1470 1467 1463 1458 1453 1446 1440 1435 1430 1424 1419 1410 1403 1399 1396 1395 1394 1391 1390 1392 1396 1398 1402 1404 1408 1409
1514 1514 1513 1500 1496 1489 1477 1482 1480 1480 1478 1479 1477 1475 1479 1478 1478 1477 1474 1470 1466 1462 1457 1453 1448 1443 1438 1434 1429 1423 1416 1409 1405 1404 1400 1394 1389 1388 1392 1404 1401 1404 1406 1410
1517 1513 1507 1504 1497 1479 1470 1478 1479 1479 1469 1470 1473 1474 1476 1477 1478 1476 1474 1472 1469 1466 1462 1458 1453 1449 1445 1439 1435 1430 1426 1421 1417 1414 1412 1407 1403 1400 1402 1407 1404 1405 1408 1411
1516 1517 1510 1514 1505 1484 1468 1475 1478 1479 1469 1466 1470 1472 1473 1475 1470 1472 1473 1472 1470 1468 1465 1462 1458 1455 1450 1446 1441 1436 1431 1426 1423 1421 1419 1417 1414 1411 1410 1411 1412 1412 1413 1415
1509 1509 1505 1501 1497 1475 1468 1474 1477 1475 1465 1466 1468 1470 1472 1473 1471 1472 1472 1472 1471 1469 1467 1464 1461 1458 1455 1451 1447 1443 1438 1433 1431 1430 1427 1424 1422 1420 1420 1420 1421 1421 1421 1422
1496 1497 1497 1500 1496 1483 1469 1474 1472 1462 1464 1465 1467 1467 1469 1470 1470 1470 1471 1471 1470 1469 1468 1466 1463 1461 1458 1454 1451 1447 1442 1440 1438 1435 1433 1430 1429 1428 1427 1427 1426 1426 1427 1427
1496 1487 1481 1482 1465 1462 1463 1461 1461 1461 1461 1463 1464 1465 1466 1466 1467 1467 1468 1468 1468 1468 1468 1466 1464 1463 1460 1457 1455 1452 1448 1445 1443 1441 1438 1435 1434 1432 1432 1431 1430 1430 1430 1430
1489 1488 1483 1480 1456 1459 1459 1458 1458 1459 1460 1460 1461 1462 1463 1464 1465 1466 1466 1467 1467 1467 1467 1466 1465 1463 1461 1459 1457 1454 1451 1448 1447 1445 1442 1440 1438 1437 1436 1435 1434 1434 1433 1433
1480 1485 1477 1471 1459 1457 1453 1452 1453 1454 1455 1456 1457 1457 1458 1460 1460 1462 1462 1463 1464 1465 1465 1464 1463 1462 1461 1459 1457 1455 1453 1451 1449 1447 1445 1443 1441 1440 1439 1438 1437 1437 1436 1436
1474 1467 1466 1454 1456 1456 1451 1450 1449 1449 1449 1451 1453 1453 1454 1455 1456 1457 1458 1459 1459 1460 1460 1460 1459 1459 1458 1457 1456 1454 1453 1451 1450 1448 1447 1445 1443 1442 1441 1439 1438 1438 1437 1437